Wind_Speed
22 28 23 20 21 40 41 43 39 39 41 46 24 22 16 26 39 44 44 31 39 42 41 39 24 28 18 19 20 22 24 25 25 24 24 24 23 23 23 24 22 21 20 18
16 16 20 14 24 19 43 45 40 37 35 29 22 17 18 22 29 35 35 36 34 36 40 40 27 27 24 21 21 24 23 24 23 22 21 21 22 22 23 23 22 23 22 20
6 10 14 6 6 17 37 40 44 34 31 25 21 18 21 25 27 28 30 33 34 37 37 38 29 22 28 24 17 21 24 24 23 23 22 21 20 22 22 22 22 23 23 23
8 2 8 11 9 12 18 20 25 24 37 32 22 24 27 25 27 29 30 34 36 35 35 38 31 26 21 23 16 14 19 22 25 28 27 26 26 26 26 25 26 26 26 25
5 8 12 11 6 8 10 14 9 15 30 25 34 32 32 32 33 33 31 32 35 38 40 39 36 30 26 24 23 22 20 20 21 22 24 27 27 26 26 29 31 32 33 32
7 3 5 12 9 8 25 18 21 21 32 34 37 39 35 33 36 39 38 35 33 31 35 40 46 43 39 34 32 26 25 21 18 19 19 22 23 23 21 21 21 22 29 35
3 7 11 16 5 9 13 8 23 31 35 36 37 39 39 34 34 34 35 35 33 32 32 32 34 35 37 32 30 30 30 27 24 22 25 26 24 23 23 23 22 22 22 26
5 7 5 14 21 32 15 8 17 26 29 34 38 40 40 37 35 33 33 32 31 29 28 29 31 30 29 27 29 32 32 32 32 33 31 30 29 29 29 28 27 26 26 25
8 11 11 13 25 18 11 19 9 15 19 20 28 35 35 36 35 35 33 31 28 26 27 29 31 29 27 29 30 30 30 31 32 33 32 30 30 30 33 33 33 32 32 31
9 5 3 16 19 21 9 13 10 3 12 18 22 25 30 29 31 31 29 27 26 24 23 24 28 35 34 31 30 31 32 30 30 32 34 34 35 36 35 33 34 35 35 35
8 9 3 9 11 12 10 0 3 1 3 17 21 24 25 26 28 30 31 29 27 26 26 28 29 34 38 39 38 38 38 37 36 36 38 41 44 41 36 33 34 34 34 34
21 15 14 14 13 13 13 7 10 10 8 8 16 20 25 26 27 27 25 26 26 25 25 25 22 27 33 38 41 43 43 43 40 35 33 36 38 36 36 33 30 30 30 31
27 26 27 24 23 19 20 19 12 10 14 11 14 14 14 23 20 21 21 19 17 16 16 18 19 22 22 22 27 32 35 34 33 30 27 28 32 34 35 34 32 30 29 30
14 25 33 33 31 25 29 23 31 22 15 20 16 16 16 13 18 17 19 21 21 21 18 18 20 22 22 20 19 24 29 31 32 29 28 29 27 28 31 32 30 28 27 27
12 18 34 40 41 36 35 32 33 40 39 31 25 23 21 21 22 21 18 22 24 25 29 27 22 20 17 17 17 16 19 25 29 28 28 28 24 23 25 26 26 25 25 23
26 25 22 35 48 48 46 40 40 38 39 44 43 38 32 32 29 29 27 23 26 24 22 26 29 29 25 20 14 11 15 18 21 23 23 23 24 25 26 29 29 29 27 28
30 29 23 17 15 34 39 36 38 41 42 42 43 44 42 38 39 33 32 33 28 29 32 29 27 26 25 21 18 20 18 18 21 24 24 25 25 26 30 31 31 30 30 31
23 25 23 22 14 4 16 26 30 33 34 34 36 40 45 48 47 41 39 40 38 37 36 34 32 29 28 27 31 32 30 26 25 27 28 28 27 29 31 32 34 35 35 33
30 21 20 17 11 7 13 21 26 28 29 31 29 30 32 40 48 51 50 49 46 44 42 37 33 29 29 31 39 46 46 35 28 31 31 30 30 29 29 30 30 29 29 28
28 28 25 18 13 10 11 16 24 23 27 30 30 29 30 33 37 42 52 56 56 55 51 47 45 43 36 31 41 43 36 35 34 34 33 31 29 29 28 27 27 27 27 27
23 26 23 23 20 11 5 10 9 9 12 13 15 18 21 24 27 29 30 34 41 49 54 50 45 34 30 31 28 42 43 35 31 31 31 29 29 28 27 25 24 25 26 27
21 22 22 23 22 20 17 13 10 6 5 10 14 17 18 16 19 21 24 25 22 23 33 29 30 39 40 38 38 34 37 37 36 32 28 31 31 27 25 24 24 24 25 25
19 20 22 23 21 23 24 21 16 16 15 11 11 15 23 29 33 35 29 21 28 33 31 31 33 27 27 25 16 18 20 22 21 22 25 21 21 21 18 16 16 16 16 17
17 20 19 22 25 22 18 17 16 20 20 17 15 15 17 13 16 30 37 40 35 35 38 37 33 28 21 15 12 13 13 15 18 21 21 23 21 21 19 16 16 17 17 20
10 14 16 17 19 22 25 24 16 13 15 11 11 15 17 17 13 16 16 16 18 25 29 30 27 25 21 22 15 10 8 7 6 7 7 10 11 11 13 15 17 18 19 20
5 5 8 12 12 13 14 18 21 18 14 12 11 10 8 6 8 10 11 11 12 12 10 9 11 12 11 8 4 4 3 5 8 9 12 14 13 14 15 14 14 15 18 20
9 11 12 16 18 12 13 16 14 12 14 13 9 5 6 8 11 9 8 7 6 5 6 6 7 9 9 8 9 10 12 10 11 12 16 18 18 17 16 13 12 14 17 20
Wind_Direction
280 267 228 213 227 220 217 217 215 226 237 244 265 302 192 188 194 199 209 208 210 214 209 206 198 197 193 215 213 203 203 204 207 210 213 215 213 211 215 218 218 221 228 232
263 228 207 215 230 231 220 219 223 234 241 246 255 288 199 190 193 205 213 203 203 210 211 203 198 203 191 204 221 219 210 204 201 204 208 210 214 216 220 220 222 227 229 234
250 177 196 198 249 257 216 222 220 223 235 243 237 184 172 184 194 201 211 208 202 202 206 208 205 198 200 201 210 221 224 223 221 216 214 215 217 220 221 225 231 229 233 238
261 228 153 129 124 108 171 187 202 209 226 238 222 193 176 177 193 204 203 197 193 195 204 206 202 201 186 195 199 213 218 221 227 228 229 230 233 233 232 233 235 238 242 243
293 292 142 147 72 40 123 85 188 194 209 217 202 195 168 164 162 157 161 173 186 198 205 207 208 207 213 209 212 232 224 215 217 228 229 230 234 237 241 244 246 246 246 246
329 354 50 360 6 108 150 85 91 133 152 176 186 190 163 163 163 160 161 163 165 173 192 205 213 217 220 224 229 223 218 215 236 249 231 224 231 238 243 248 247 248 246 245
135 81 54 42 328 104 99 59 76 116 155 162 169 172 163 168 176 173 171 170 172 172 181 189 199 208 211 218 222 228 233 249 254 256 245 239 243 242 245 248 253 254 254 251
66 79 72 75 85 89 69 124 92 106 127 149 161 165 163 171 182 186 187 187 186 188 190 190 193 199 203 206 211 218 227 232 237 246 247 246 249 255 259 261 261 260 260 260
46 78 45 102 92 89 115 79 111 107 123 142 158 167 171 173 181 189 197 202 205 209 217 217 206 204 208 212 216 225 230 233 234 234 236 245 253 259 262 262 263 265 267 265
49 23 55 144 108 86 64 87 79 106 131 146 162 163 177 180 182 189 200 208 214 218 223 235 231 218 214 215 221 224 226 231 239 245 247 255 258 264 264 262 264 265 265 265
319 301 258 226 193 136 99 167 188 36 177 155 162 168 177 183 190 194 198 205 212 221 227 230 234 233 229 228 230 233 234 237 242 247 252 256 262 261 257 259 265 264 262 265
279 258 248 214 250 250 253 242 262 277 266 177 165 180 181 180 185 191 194 200 215 222 224 226 246 246 242 239 238 239 244 250 250 247 244 249 252 254 253 257 265 263 265 267
273 270 266 249 223 229 239 237 245 254 263 255 209 199 207 195 178 192 200 212 216 222 232 250 249 241 241 240 234 235 234 235 237 240 241 248 249 249 251 254 261 264 263 265
275 273 268 259 254 239 238 239 254 239 243 260 254 249 238 234 219 202 204 210 222 236 231 234 236 241 247 239 237 233 234 232 235 239 242 246 252 253 252 253 257 260 264 266
311 270 265 262 251 244 243 237 245 258 256 257 258 254 256 245 239 240 233 224 222 226 235 224 220 222 228 235 242 245 248 245 241 239 241 243 246 251 253 252 254 259 262 262
345 335 306 263 251 244 238 237 233 237 255 261 256 258 256 255 254 250 249 244 239 246 240 240 237 234 238 243 262 264 272 266 256 248 248 245 246 245 238 243 248 257 260 263
351 349 355 356 277 245 237 238 238 241 246 252 260 261 273 268 259 256 258 259 256 250 247 252 259 252 252 257 278 281 282 280 272 268 254 251 248 248 249 252 255 258 259 261
351 349 359 5 357 278 227 235 238 247 257 263 266 266 265 265 264 256 253 257 259 256 254 256 261 269 273 275 282 287 294 281 263 255 256 256 254 252 252 252 255 258 260 261
23 10 351 354 349 294 254 249 252 254 255 262 265 267 266 267 267 264 258 257 256 258 260 261 266 258 268 277 283 293 291 281 257 246 246 248 251 251 251 252 252 252 251 251
20 33 29 13 329 284 267 263 261 256 257 258 261 263 263 257 256 258 258 256 256 260 265 268 265 266 275 278 287 285 266 269 248 236 235 238 240 241 240 240 240 241 245 253
13 15 31 46 50 43 278 277 273 281 285 263 265 253 252 251 253 257 255 254 254 256 258 264 267 260 260 262 250 244 266 238 233 230 225 223 226 227 231 239 245 249 254 258
11 13 11 22 41 51 60 69 97 119 249 257 262 240 247 238 226 233 218 231 210 231 241 246 251 249 254 242 215 234 206 215 223 222 223 230 229 232 237 245 252 257 262 268
9 8 7 11 14 17 20 37 60 74 85 101 121 135 154 158 164 173 188 212 206 201 214 192 182 196 208 216 199 193 188 194 205 219 225 223 228 233 237 242 248 252 256 261
360 5 9 2 3 6 19 28 24 17 23 51 85 86 98 128 134 150 163 174 163 178 188 165 206 195 173 181 197 197 195 196 206 214 222 228 228 227 224 228 251 263 269 276
8 10 15 14 15 14 7 359 10 29 37 36 29 21 27 44 75 95 105 118 155 168 166 169 167 171 177 177 173 182 182 179 203 194 235 260 260 258 258 257 257 260 262 267
342 6 9 355 5 14 12 5 357 359 18 31 21 29 48 57 44 57 64 62 67 86 98 118 148 154 147 142 168 211 238 257 256 253 253 255 255 261 267 273 281 287 286 281
336 324 315 328 328 345 349 348 6 13 5 16 38 31 35 40 32 42 46 75 94 117 137 155 167 173 182 201 218 237 246 258 269 277 280 279 276 271 274 281 276 263 261 265
Height
3017 3015 3022 3027 3034 3038 3042 3048 3051 3057 3060 3060 3064 3061 3057 3063 3070 3078 3088 3094 3100 3109 3117 3124 3129 3135 3140 3145 3149 3151 3154 3157 3161 3166 3170 3174 3177 3181 3185 3188 3191 3195 3197 3199
3009 3013 3017 3023 3027 3031 3037 3043 3050 3054 3059 3062 3066 3061 3059 3064 3069 3075 3081 3088 3095 3102 3110 3119 3126 3131 3135 3141 3146 3150 3153 3156 3160 3164 3168 3171 3175 3178 3182 3185 3188 3190 3193 3195
3009 3011 3017 3024 3026 3026 3033 3042 3048 3052 3057 3060 3064 3062 3061 3065 3068 3072 3077 3083 3090 3098 3106 3115 3121 3127 3132 3139 3143 3148 3152 3156 3159 3162 3165 3169 3173 3175 3178 3181 3184 3186 3189 3191
3009 3008 3013 3018 3020 3021 3028 3033 3039 3044 3052 3056 3061 3061 3060 3062 3065 3069 3073 3080 3086 3094 3102 3111 3118 3124 3130 3135 3140 3145 3148 3152 3155 3157 3162 3165 3168 3170 3173 3177 3179 3182 3184 3185
3011 3007 3008 3012 3015 3020 3025 3032 3033 3038 3045 3051 3056 3055 3058 3061 3065 3069 3073 3078 3083 3090 3098 3106 3113 3120 3127 3131 3136 3141 3144 3147 3151 3153 3157 3159 3162 3165 3168 3171 3173 3176 3178 3179
3012 3009 3009 3017 3014 3018 3020 3030 3032 3032 3040 3046 3052 3052 3057 3062 3065 3068 3072 3077 3082 3087 3093 3100 3107 3114 3121 3126 3131 3135 3138 3143 3146 3148 3152 3155 3158 3161 3163 3164 3166 3167 3168 3170
3011 3010 3015 3015 3013 3015 3026 3048 3037 3033 3037 3040 3045 3046 3051 3059 3064 3068 3072 3077 3083 3087 3092 3098 3103 3108 3114 3120 3124 3130 3135 3138 3140 3143 3146 3148 3151 3154 3156 3157 3159 3159 3161 3162
3010 3013 3023 3022 3020 3023 3041 3039 3036 3034 3036 3037 3039 3043 3047 3055 3062 3068 3073 3076 3082 3087 3092 3096 3100 3104 3109 3114 3118 3122 3127 3131 3134 3136 3139 3140 3142 3144 3146 3148 3150 3151 3153 3154
3016 3021 3022 3023 3021 3030 3031 3031 3036 3036 3036 3039 3039 3042 3046 3051 3058 3064 3070 3076 3080 3084 3088 3092 3097 3101 3105 3108 3112 3115 3119 3123 3126 3128 3131 3134 3136 3138 3139 3140 3141 3142 3144 3145
3020 3023 3023 3025 3022 3023 3029 3031 3033 3035 3036 3038 3039 3041 3045 3051 3055 3061 3067 3072 3076 3079 3084 3088 3091 3095 3098 3101 3104 3108 3111 3115 3119 3122 3125 3127 3129 3130 3131 3133 3134 3135 3136 3136
3020 3025 3029 3025 3029 3028 3027 3028 3031 3033 3034 3034 3037 3040 3043 3047 3053 3057 3062 3066 3070 3075 3080 3084 3087 3089 3091 3093 3096 3099 3103 3107 3110 3113 3116 3117 3118 3120 3122 3124 3125 3126 3127 3128
3014 3020 3024 3027 3026 3029 3023 3030 3028 3025 3026 3032 3034 3036 3041 3046 3051 3055 3058 3062 3066 3071 3075 3078 3081 3083 3085 3087 3088 3091 3094 3097 3100 3103 3106 3107 3108 3110 3112 3115 3117 3117 3119 3119
3006 3011 3015 3021 3027 3025 3030 3024 3020 3025 3031 3036 3039 3040 3040 3044 3049 3053 3056 3059 3062 3066 3070 3073 3075 3076 3079 3079 3080 3082 3085 3089 3092 3095 3099 3098 3100 3102 3104 3107 3109 3109 3110 3111
3007 3004 3003 3009 3013 3022 3023 3022 3020 3024 3028 3034 3038 3039 3041 3043 3045 3048 3051 3055 3058 3061 3064 3066 3068 3070 3072 3074 3075 3075 3077 3082 3084 3087 3089 3089 3091 3094 3096 3098 3099 3100 3101 3102
3000 2998 2993 2993 2999 3006 3011 3019 3018 3019 3021 3028 3031 3035 3038 3040 3041 3042 3045 3049 3052 3056 3058 3059 3061 3063 3065 3068 3069 3069 3071 3074 3076 3078 3081 3083 3084 3085 3086 3088 3089 3092 3094 3096
2994 2990 2984 2982 2982 2992 2999 3005 3011 3016 3012 3014 3025 3028 3031 3033 3035 3036 3038 3044 3045 3046 3049 3052 3055 3058 3060 3062 3064 3065 3066 3068 3071 3072 3073 3075 3077 3078 3080 3081 3083 3085 3086 3087
2992 2987 2982 2977 2973 2976 2989 2998 3001 3003 3008 3012 3011 3017 3020 3024 3025 3027 3029 3032 3035 3035 3038 3042 3045 3048 3050 3053 3056 3060 3063 3065 3067 3068 3069 3070 3071 3073 3074 3076 3078 3079 3079 3080
2999 2992 2986 2981 2977 2978 2981 2987 2993 2996 2998 3001 3004 3007 3010 3011 3010 3014 3018 3019 3022 3026 3029 3033 3037 3038 3039 3042 3045 3050 3054 3058 3061 3062 3064 3064 3065 3066 3067 3069 3071 3071 3072 3073
3003 2996 2990 2985 2982 2981 2982 2983 2984 2985 2987 2986 2990 2992 2993 2993 2995 3002 3009 3010 3013 3016 3019 3024 3028 3030 3033 3036 3039 3041 3044 3047 3051 3054 3055 3055 3057 3059 3061 3062 3064 3065 3066 3067
3009 3002 2994 2988 2985 2983 2982 2982 2981 2981 2980 2982 2982 2981 2980 2983 2987 2992 2995 3000 3004 3007 3011 3014 3020 3025 3029 3031 3031 3033 3035 3037 3039 3043 3045 3046 3048 3050 3052 3054 3056 3058 3058 3058
3013 3008 3002 2996 2991 2986 2983 2981 2979 2979 2978 2976 2977 2976 2976 2978 2981 2982 2985 2989 2994 2999 3003 3009 3010 3016 3021 3024 3026 3027 3027 3031 3033 3037 3039 3039 3040 3042 3044 3047 3048 3050 3050 3050
3015 3010 3005 3001 2997 2993 2989 2986 2982 2980 2978 2977 2975 2974 2975 2976 2978 2980 2986 2986 2992 2994 2996 3001 3004 3010 3014 3017 3019 3016 3021 3020 3024 3028 3032 3035 3035 3035 3037 3039 3041 3041 3041 3041
3017 3012 3007 3004 3001 2997 2993 2990 2987 2986 2983 2980 2979 2977 2976 2975 2975 2976 2980 2985 2987 2991 2992 2998 3000 3003 3008 3011 3012 3015 3011 3010 3016 3019 3024 3026 3029 3028 3028 3030 3033 3034 3033 3033
3018 3014 3011 3007 3001 2998 2997 2994 2992 2988 2984 2982 2980 2980 2979 2978 2976 2974 2975 2980 2983 2984 2990 2990 2991 3001 3001 3003 3009 3009 3009 3010 3012 3013 3015 3018 3022 3021 3021 3021 3025 3028 3027 3027
3019 3016 3013 3010 3008 3004 3000 2996 2994 2993 2992 2990 2985 2981 2980 2979 2977 2976 2976 2976 2977 2980 2983 2987 2990 2991 2995 2999 3005 3009 3009 3008 3011 3010 3015 3017 3016 3014 3015 3017 3020 3022 3021 3019
3020 3017 3015 3012 3010 3009 3007 3003 2998 2995 2994 2993 2991 2987 2984 2984 2982 2981 2980 2980 2980 2981 2983 2985 2987 2991 2995 2999 3004 3006 3005 3006 3006 3006 3011 3013 3011 3009 3011 3012 3013 3012 3012 3010
3021 3018 3016 3014 3011 3009 3007 3005 3003 3000 2996 2994 2993 2990 2989 2987 2986 2985 2983 2983 2983 2985 2987 2989 2990 2993 2996 2997 2998 2998 3000 3000 3001 3003 3006 3006 3005 3004 3007 3008 3007 3006 3005 3003